DELTA 1 DEB, 12198

Orbit data source: Space-Track

DELTA 1 DEB, 12198 is space debris in SSO originally from a launch on Sun, 05 Mar 1978 UTC launched from the Air Force Western Test Range (AFWTR). Debris objects in space refer to the collection of defunct objects orbiting the Earth. Examples of debris include non-operational satellites, rocket bodies, and fragments generated from explosions, collisions, or faulty payload assembly.

Loading next visibility...
Identifier
12198, 1978-026AP
Orbit
SSO
Country
Flag of USUS
Related business
Manufacturer
Unknown
Mission
Spacecraft
Bus & Motor
Unknown
Mass
Unknown
Launch date (UTC)
1978-03-05 (48 years ago)
Launch vehicle
Unknown
Launch site
Air Force Western Test Range (AFWTR)
Object type
Payload
Rocket body
Debris
Shape & HBR
Unknown shape, 0.1 m
Radar Cross Section
Medium (>0.1 m² and <1 m²)

Expand to show TLE details & history
Last TLE update: 3 days ago

TLE from 3 days ago
0 DELTA 1 DEB
1 12198U 78026AP  26171.20312161  .00000452  00000-0  30106-3 0  9991
2 12198  99.1515  87.9996 0115508 262.2925  96.5112 14.03344575311598
Epoch: 2026-06-20T04:52Z
TLE epoch observation values (Epoch: 2026-06-20T04:52:29.707Z)
Latitude
0.00002°
Longitude
106.4547°
Altitude
895.58 km
Speed
7.399 km/s
True Right ascension
05h 51m 59s
True Declination
0° 00' 00"
Sunlit
Object was in daylight at epoch
Visualization orbit readout
Latitude
Unknown
Longitude
Unknown
Altitude
Unknown
Speed
Unknown
Apparent Right ascension
Unknown
Apparent Declination
Unknown
Sunlit
N/A
Visualization observer readout
Local Sidereal Time
06:44:44
Azimuth
Unknown
Elevation
Unknown
Doppler factor
Unknown
Orbital elements
Apogee altitude
963.269 km
Perigee altitude
795.608 km
Semi-major axis
7,257.575 km
Eccentricity
0.01155
Inclination
99.1515°
RAAN
87.9996°
Arg. of periapsis
262.2925°
True anomaly
97.82402°
Mean anomaly
96.5112°
Eccentric anomaly
97.16784°
Mean motion
3.51039 °/min
Orbital period
102.55 mins
BSTAR
0.00030106
Loading maneuver chart data...
Computing Atmospheric mass density...
Loading historical data...
Loading historical data...
Loading historical data...
Loading historical data...
Loading historical data...
Loading historical data...
Loading historical data...

Documentation

Showing up to 5 results
|